NOAA 17 DEB, 48729

Orbit data source: Space-Track

NOAA 17 DEB, 48729 is space debris in SSO originally from a launch on Mon, 24 Jun 2002 UTC launched from the Air Force Western Test Range (AFWTR). Debris objects in space refer to the collection of defunct objects orbiting the Earth. Examples of debris include non-operational satellites, rocket bodies, and fragments generated from explosions, collisions, or faulty payload assembly.

Loading next visibility...
Identifier
48729, 2002-032BN
Orbit
SSO
Country
Flag of USUS
Related business
Manufacturer
Unknown
Mission
Spacecraft
Bus & Motor
Unknown
Mass
Unknown
Launch date (UTC)
2002-06-24 (23 years ago)
Launch vehicle
Unknown
Launch site
Air Force Western Test Range (AFWTR)
Object type
Payload
Rocket body
Debris
Shape & HBR
Unknown shape, 0.1 m
Radar Cross Section
Small (<0.1 m²)

Expand to show TLE details & history
Last TLE update: 17 hours ago

TLE from 17 hours ago
0 NOAA 17 DEB
1 48729U 02032BN  25349.81767574  .00009060  00000-0  17541-2 0  9990
2 48729  98.4702 292.0167 0012317 102.5183 257.7397 14.63502980247330
Epoch: 2025-12-15T19:37Z
TLE epoch observation values (Epoch: 2025-12-15T19:37:27.183Z)
Latitude
-0.00003°
Longitude
-87.05735°
Altitude
686.724 km
Speed
7.512 km/s
True Right ascension
19h 28m 04s
True Declination
0° 00' 00"
Sunlit
Object was in daylight at epoch
Visualization orbit readout
Latitude
Unknown
Longitude
Unknown
Altitude
Unknown
Speed
Unknown
Apparent Right ascension
Unknown
Apparent Declination
Unknown
Sunlit
N/A
Visualization observer readout
Local Sidereal Time
11:30:58
Azimuth
Unknown
Elevation
Unknown
Doppler factor
Unknown
Orbital elements
Apogee altitude
687.667 km
Perigee altitude
670.283 km
Semi-major axis
7,057.112 km
Eccentricity
0.00123
Inclination
98.4702°
RAAN
292.0167°
Arg. of periapsis
102.5183°
True anomaly
257.60182°
Mean anomaly
257.7397°
Eccentric anomaly
257.67076°
Mean motion
3.66102 °/min
Orbital period
98.33 mins
BSTAR
0.0017541
Loading maneuver chart data...
Computing Atmospheric mass density...
Loading historical data...
Loading historical data...
Loading historical data...
Loading historical data...
Loading historical data...
Loading historical data...
Loading historical data...

Documentation

Showing up to 5 results
|